[[{"header":{"parameterUnit":"m.s-1","parameterCategory":1,"la1":30.2991,"la2":30.254,"lo1":-89.0895,"lo2":-89.0444,"dy":0.0017,"dx":0.0017,"nx":28,"ny":28,"refTime":"2025-08-25T21:00:00:Z","depth":0,"parameterNumber":2,"parameterNumberName":"U-component_of_WINDS"},"data":[0,0,0,0,0,0,0,0,0,0,0,0,0,0,0,0,0,0,0,0,0,0,0,0,0,0,0,0,0,0,0,0,0,0,0,0,0,0,0,0,0,0,0,0,0,0,0,0,0,0,0,0,0,0,0,0,0,0,-1.8979,-1.8977,0,-1.888,-1.8879,-1.8878,-1.8738,-1.8735,-1.8733,-1.8731,-1.8631,-1.8631,-1.8631,0,0,0,0,0,0,0,0,0,0,0,0,0,-1.9049,-1.9048,-1.8979,-1.8977,-1.8976,-1.888,-1.8879,-1.8878,-1.8738,-1.8735,-1.8732,-1.8729,-1.8631,-1.8631,-1.863,0,0,0,0,0,0,0,0,0,0,0,0,0,-1.8991,-1.9048,-1.8979,-1.8895,-1.8886,-1.8881,-1.8879,-1.8877,-1.8739,-1.8735,-1.8731,-1.8728,-1.8632,-1.8631,-1.863,-1.8699,0,0,-1.8629,-1.8628,0,0,0,0,0,0,0,0,-1.8995,-1.8989,-1.8909,-1.8901,-1.8891,-1.8817,-1.8867,-1.8818,-1.874,-1.8795,-1.873,-1.8726,-1.8696,-1.869,-1.868,-1.8695,-1.869,-1.8629,-1.8628,-1.8628,-1.8628,0,0,0,0,0,0,0,-1.8999,-1.8992,-1.894,-1.8908,-1.8897,-1.8863,-1.8851,-1.8857,-1.8767,-1.879,-1.8779,-1.877,-1.8691,-1.8681,-1.8676,-1.8689,-1.8629,-1.8628,-1.8628,-1.8627,-1.8758,-1.8761,0,0,0,0,0,0,-1.9015,-1.8996,-1.8943,-1.8937,-1.8935,-1.8865,-1.8851,-1.8845,-1.8767,-1.8751,-1.8773,-1.8763,-1.8683,-1.8677,-1.8672,-1.8749,-1.8628,-1.8627,-1.8627,-1.8754,-1.8758,-1.8763,0,0,0,0,0,0,-1.9017,-1.9011,-1.8947,-1.8964,-1.8953,-1.8867,-1.8861,-1.8845,-1.8834,-1.8754,-1.8737,-1.8779,-1.868,-1.8673,-1.8694,-1.8743,-1.8627,-1.8627,-1.8749,-1.8755,-1.8761,-1.8902,0,0,0,0,0,0,-1.902,-1.9013,-1.9037,-1.8965,-1.8953,-1.897,-1.8864,-1.8845,-1.8833,-1.882,-1.8755,-1.8741,-1.8677,-1.8696,-1.8693,-1.8741,-1.8626,-1.8745,-1.8752,-1.8759,-1.8893,-1.8912,-1.8929,0,0,0,0,0,-1.9023,-1.9081,-1.9039,-1.9034,-1.8981,-1.8973,-1.8965,-1.889,-1.8838,-1.8862,-1.8811,-1.8743,-1.8739,-1.8699,-1.8695,-1.8743,-1.8741,-1.875,-1.8758,-1.8885,-1.8909,-1.8928,0,0,0,0,0,0,-1.9161,-1.907,-1.9023,-1.9059,-1.9025,-1.8949,-1.8977,-1.8918,-1.8897,-1.8886,-1.8794,-1.8781,-1.8814,-1.878,-1.8738,-1.8807,-1.873,-1.8738,-1.8827,-1.8849,-1.8867,-1.8874,-1.8626,0,0,0,0,0,-1.9196,-1.9196,-1.9117,-1.9157,-1.9142,-1.9064,-1.9057,-1.9002,-1.8963,-1.8948,-1.8897,-1.8863,-1.8853,-1.8849,-1.8836,-1.8888,-1.8872,-1.8919,-1.8937,-1.8952,-1.896,-1.8987,-1.9007,-1.8791,-1.8791,-1.8791,0,0,-1.9268,-1.9218,-1.9224,-1.9184,-1.915,-1.9154,-1.9052,-1.9059,-1.9061,-1.8949,-1.8965,-1.8928,-1.8883,-1.892,-1.8934,-1.8893,-1.9017,-1.8963,-1.8976,-1.8975,-1.8998,-1.9019,-1.9037,-1.8797,-1.8796,-1.8795,0,0,-1.9401,-1.9363,-1.9393,-1.9362,-1.9313,-1.9261,-1.9269,-1.9202,-1.9173,-1.9188,-1.9105,-1.9107,-1.9092,-1.9064,-1.9048,-1.9174,-1.9111,-1.9172,-1.9266,-1.9293,-1.931,-1.9325,-1.9371,-1.9388,-1.9181,-1.9181,-1.9181,0,-1.9497,-1.9497,-1.9416,-1.9429,-1.9415,-1.9314,-1.9345,-1.9319,-1.9269,-1.9262,-1.9217,-1.9198,-1.9161,-1.9191,-1.9222,-1.9212,-1.9219,-1.9179,-1.9314,-1.9328,-1.9341,-1.9384,-1.9401,-1.9189,-1.9188,-1.9187,-1.9186,0,-1.9618,-1.962,-1.9651,-1.9605,-1.9594,-1.9616,-1.954,-1.9538,-1.9486,-1.9439,-1.9457,-1.9409,-1.9386,-1.9389,-1.9337,-1.9412,-1.9389,-1.9331,-1.9251,-1.937,-1.9409,-1.9425,-1.92,-1.9197,-1.9195,-1.9193,0,0,-1.9834,-1.9745,-1.9758,-1.9736,-1.9676,-1.9677,-1.9695,-1.9672,-1.9674,-1.9643,-1.9657,-1.9649,-1.9595,-1.9577,-1.9522,-1.9546,-1.9651,-1.9484,-1.9482,-1.9518,-1.9733,-1.9777,-1.9798,-1.9609,-1.9611,-1.9614,-1.9737,0,-1.9956,-1.9981,-1.991,-1.9954,-1.9956,-1.9861,-1.9877,-1.9844,-1.9801,-1.9797,-1.975,-1.9746,-1.9674,-1.9663,-1.9683,-1.9634,-1.9693,-1.9624,-1.9622,-1.9623,-1.9637,-1.9818,-1.9864,-1.9983,-1.9751,-1.9754,-1.9756,0,-2.01,-2.0078,-2.0122,-2.0062,-2.006,-2.0076,-2.005,-2.0047,-2.0007,-1.9975,-1.9957,-1.9892,-1.9908,-1.9832,-1.9853,-1.9808,-1.9803,-1.978,-1.9782,-1.9779,-1.9697,-1.9821,-2.0018,-2.0037,-1.9779,-1.9777,-1.9775,0,-2.0255,-2.0236,-2.026,-2.0245,-2.0175,-2.0188,-2.016,-2.0116,-2.0108,-2.0086,-2.008,-2.006,-2.005,-2.0037,-1.997,-1.9921,-2.0,-1.9918,-1.9974,-1.9976,-1.9995,-1.9995,-2.0196,-1.9992,-1.9991,-1.9991,-1.9991,0,-2.0398,-2.0429,-2.0329,-2.0344,-2.0377,-2.0296,-2.0331,-2.0293,-2.0256,-2.0263,-2.018,-2.0189,-2.01,-2.01,-2.0048,-2.0074,-2.007,-2.0045,-2.0031,-2.0052,-2.0056,-2.0048,-2.0038,-1.9996,-1.9995,-1.9994,-1.9993,0,-2.0576,-2.051,-2.053,-2.0463,-2.0446,-2.0474,-2.0416,-2.0428,-2.0381,-2.0392,-2.039,-2.0316,-2.0311,-2.0244,-2.0224,-2.0189,-2.0237,-2.0207,-2.0251,-2.0241,-2.0301,-2.0297,-2.0505,-2.0529,-2.031,-2.0312,-2.0314,0,-2.0671,-2.0693,-2.0629,-2.0627,-2.0603,-2.0602,-2.0593,-2.0515,-2.051,-2.0468,-2.0485,-2.0474,-2.0461,-2.0459,-2.0404,-2.039,-2.0359,-2.0433,-2.0356,-2.0378,-2.0361,-2.0361,-2.0364,-2.0449,-2.0452,-2.0454,-2.0456,0,-2.0849,-2.0816,-2.0806,-2.0786,-2.0778,-2.0758,-2.0733,-2.0738,-2.0652,-2.065,-2.0645,-2.0635,-2.0616,-2.0606,-2.0583,-2.0554,-2.0492,-2.0481,-2.0493,-2.0516,-2.0541,-2.0529,-2.0295,-2.0476,-2.0474,-2.0473,-2.0472,-2.0471,-2.0989,-2.1005,-2.0962,-2.0955,-2.0928,-2.0908,-2.0916,-2.0871,-2.0864,-2.0843,-2.0797,-2.08,-2.0762,-2.0723,-2.0701,-2.0702,-2.0664,-2.0682,-2.0687,-2.0692,-2.0705,-2.0541,-2.0697,-2.0697,-2.0696,-2.0696,-2.0695,0,-2.1163,-2.1131,-2.1125,-2.1094,-2.1089,-2.103,-2.1001,-2.1001,-2.1003,-2.0973,-2.0962,-2.0957,-2.0949,-2.0894,-2.088,-2.0892,-2.0863,-2.0891,-2.0889,-2.0884,-2.0739,-2.073,-2.0914,-2.0914,-2.0914,-2.0914,-2.0914,-2.0914,-2.1253,-2.1277,-2.1239,-2.125,-2.1218,-2.122,-2.1208,-2.119,-2.1165,-2.1163,-2.1155,-2.112,-2.1081,-2.1063,-2.1053,-2.1038,-2.1037,-2.1074,-2.105,-2.0915,-2.0894,-2.0874,-2.0865,-2.1075,-2.1075,-2.1194,-2.1196,-2.1196]},{"header":{"parameterUnit":"m.s-1","parameterCategory":1,"la1":30.2991,"la2":30.254,"lo1":-89.0895,"lo2":-89.0444,"dy":0.0017,"dx":0.0017,"nx":28,"ny":28,"refTime":"2025-08-25T21:00:00:Z","depth":0,"parameterNumber":3,"parameterNumberName":"V-component_of_WINDS"},"data":[0,0,0,0,0,0,0,0,0,0,0,0,0,0,0,0,0,0,0,0,0,0,0,0,0,0,0,0,0,0,0,0,0,0,0,0,0,0,0,0,0,0,0,0,0,0,0,0,0,0,0,0,0,0,0,0,0,0,1.4357,1.4357,0,1.4333,1.4332,1.4332,1.4329,1.433,1.433,1.433,1.43,1.4299,1.4298,0,0,0,0,0,0,0,0,0,0,0,0,0,1.4398,1.4397,1.4357,1.4357,1.4357,1.4333,1.4332,1.4332,1.4329,1.433,1.433,1.433,1.43,1.4299,1.4298,0,0,0,0,0,0,0,0,0,0,0,0,0,1.4377,1.4397,1.4357,1.4352,1.4352,1.4333,1.4332,1.4332,1.4329,1.433,1.433,1.433,1.4301,1.4299,1.4298,1.428,0,0,1.4293,1.4292,0,0,0,0,0,0,0,0,1.4379,1.4376,1.4353,1.4353,1.4352,1.4335,1.4336,1.4315,1.4329,1.4338,1.433,1.4331,1.4311,1.4309,1.4303,1.4279,1.4278,1.4293,1.4292,1.4291,1.4291,0,0,0,0,0,0,0,1.438,1.4377,1.4347,1.4353,1.4352,1.435,1.4348,1.4332,1.4322,1.4337,1.4337,1.4334,1.4311,1.4305,1.4302,1.4277,1.4293,1.4292,1.4291,1.429,1.4238,1.4237,0,0,0,0,0,0,1.4383,1.4378,1.4348,1.4347,1.4367,1.4349,1.4347,1.434,1.4322,1.432,1.4334,1.4334,1.4307,1.4304,1.4301,1.4279,1.4291,1.429,1.4289,1.4238,1.4238,1.4237,0,0,0,0,0,0,1.4384,1.438,1.4349,1.4362,1.4358,1.4348,1.4341,1.4339,1.4333,1.432,1.4318,1.433,1.4307,1.4303,1.4286,1.4278,1.4289,1.4288,1.4239,1.4238,1.4237,1.4236,0,0,0,0,0,0,1.4385,1.4381,1.4375,1.4362,1.4358,1.4335,1.434,1.4338,1.4331,1.4331,1.4316,1.4313,1.4307,1.4288,1.4284,1.4276,1.4287,1.4239,1.4238,1.4238,1.4237,1.4235,1.4234,0,0,0,0,0,1.4386,1.4374,1.4374,1.4371,1.435,1.4335,1.4332,1.4327,1.433,1.4324,1.4316,1.4314,1.428,1.4287,1.4282,1.4274,1.424,1.4239,1.4238,1.4237,1.4236,1.4234,0,0,0,0,0,0,1.4384,1.4372,1.4372,1.4356,1.4347,1.4335,1.4326,1.4325,1.4313,1.4314,1.4306,1.4303,1.4285,1.4278,1.4285,1.4256,1.426,1.4258,1.4261,1.426,1.4259,1.426,1.4285,0,0,0,0,0,1.4382,1.4372,1.4362,1.4348,1.4344,1.4336,1.4329,1.4326,1.4315,1.4311,1.4301,1.429,1.4277,1.4268,1.4255,1.4236,1.4232,1.4228,1.4227,1.4226,1.4224,1.4213,1.4211,1.4234,1.4234,1.4234,0,0,1.4377,1.4369,1.4363,1.4348,1.434,1.4329,1.4332,1.432,1.4311,1.4308,1.4292,1.4284,1.4271,1.4253,1.4244,1.4246,1.4217,1.4225,1.4224,1.4222,1.4212,1.4209,1.4207,1.4233,1.4233,1.4233,0,0,1.4361,1.4355,1.4343,1.4336,1.4325,1.432,1.4317,1.4306,1.4301,1.4285,1.4283,1.4272,1.4249,1.424,1.4232,1.4215,1.4212,1.4211,1.4204,1.4193,1.4191,1.419,1.4183,1.418,1.4209,1.4209,1.4209,0,1.4355,1.4339,1.4336,1.4325,1.4318,1.4317,1.4304,1.4297,1.4282,1.4276,1.4279,1.4252,1.4243,1.4222,1.4218,1.4212,1.4208,1.4212,1.4192,1.4191,1.4189,1.4182,1.418,1.4209,1.4209,1.4209,1.4209,0,1.4333,1.4322,1.4313,1.4301,1.4293,1.428,1.4275,1.4267,1.4265,1.4259,1.4243,1.4232,1.4217,1.4212,1.4209,1.4191,1.4193,1.4194,1.4198,1.4187,1.418,1.4177,1.4208,1.4209,1.4209,1.4209,0,0,1.4313,1.43,1.4297,1.4291,1.428,1.4271,1.4259,1.4246,1.4239,1.4229,1.4218,1.42,1.4201,1.4193,1.4189,1.418,1.4166,1.4182,1.4182,1.4179,1.4145,1.4143,1.414,1.4165,1.4165,1.4164,1.4146,0,1.4295,1.4274,1.4272,1.4253,1.4242,1.4242,1.4231,1.4223,1.4218,1.4207,1.4201,1.4188,1.4191,1.4186,1.4178,1.417,1.4159,1.4171,1.4153,1.4152,1.4155,1.4137,1.4134,1.4117,1.4143,1.4143,1.4142,0,1.4271,1.4263,1.4243,1.4234,1.4229,1.422,1.4208,1.4199,1.4189,1.4186,1.4177,1.4175,1.4161,1.4167,1.4147,1.4155,1.4148,1.4143,1.4142,1.4139,1.4145,1.4132,1.4111,1.4108,1.4138,1.4139,1.4139,0,1.4258,1.4241,1.4227,1.4222,1.4212,1.4205,1.42,1.4191,1.4183,1.4173,1.4168,1.4156,1.4149,1.4139,1.4133,1.4138,1.4113,1.4118,1.4109,1.4109,1.4102,1.4102,1.4079,1.4099,1.4099,1.41,1.41,0,1.4237,1.4225,1.4221,1.4212,1.4198,1.4196,1.4182,1.4177,1.4169,1.4158,1.4158,1.4147,1.4141,1.413,1.4125,1.4109,1.4106,1.4102,1.41,1.4101,1.4101,1.4095,1.4095,1.4099,1.4099,1.4099,1.4099,0,1.4218,1.4216,1.42,1.4193,1.419,1.418,1.4173,1.4164,1.416,1.4147,1.4143,1.4136,1.4123,1.4117,1.41,1.4097,1.4078,1.4078,1.4082,1.4081,1.4071,1.4071,1.4041,1.4037,1.4062,1.4062,1.4062,0,1.4205,1.4196,1.4187,1.4181,1.4177,1.4166,1.416,1.4157,1.415,1.4139,1.4131,1.4118,1.4108,1.4086,1.4079,1.4066,1.4065,1.4055,1.4062,1.4064,1.4063,1.4063,1.4062,1.4053,1.4053,1.4053,1.4053,0,1.418,1.418,1.4171,1.4162,1.4154,1.4146,1.4138,1.4133,1.4129,1.4121,1.4109,1.4101,1.4085,1.4072,1.4059,1.4052,1.4051,1.4051,1.4048,1.4047,1.4049,1.4047,1.4077,1.4051,1.4051,1.4051,1.4051,1.4051,1.4163,1.4155,1.4148,1.4138,1.4133,1.4126,1.4117,1.4113,1.4103,1.4091,1.409,1.4076,1.4067,1.405,1.4043,1.4032,1.4034,1.4029,1.4028,1.4027,1.4026,1.4053,1.403,1.403,1.403,1.403,1.403,0,1.4137,1.4134,1.4125,1.4115,1.4107,1.411,1.4102,1.4094,1.4083,1.4075,1.4066,1.4052,1.404,1.4032,1.4019,1.4012,1.4011,1.4008,1.4008,1.4006,1.4025,1.4029,1.4009,1.4009,1.4009,1.4009,1.4009,1.4009,1.4123,1.4109,1.4108,1.4092,1.4088,1.4076,1.4071,1.4065,1.4059,1.4043,1.4034,1.403,1.4022,1.4009,1.3998,1.3996,1.3991,1.3988,1.3986,1.4003,1.4005,1.4007,1.401,1.3987,1.3987,1.3968,1.3968,1.3968]}]]